Roanoke, VA

8:21 AM EST on December 07, 2016 (GMT -0500)
Roanoke Regional-Woodrum

Weather History for KROA - February, 2011

Change the Weather History Date:

Wednesday, February 23, 2011

  Actual Average Record
Temperature  
Mean Temperature 38 °F 41 °F  
Max Temperature 45 °F 51 °F 76 °F (1943)
Min Temperature 30 °F 31 °F 12 °F (1963)
Degree Days  
Heating Degree Days 27 24  
Month to date heating degree days 520 597  
Since 1 July heating degree days 3193 3089  
Cooling Degree Days 0 0  
Month to date cooling degree days 0 0  
Year to date cooling degree days 0 0  
Moisture  
Dew Point 29 °F    
Average Humidity 74    
Maximum Humidity 89    
Minimum Humidity 58    
Precipitation  
Precipitation T in 0.10 in 1.47 in (1984)
Month to date precipitation 0.39 2.39  
Year to date precipitation 1.21 5.31  
Snow  
Snow 0.00 in - - ()
Month to date snowfall 0.6  
Since 1 July snowfall 10.2  
Snow Depth 0.00 in    
Sea Level Pressure  
Sea Level Pressure 30.31 in    
Wind  
Wind Speed 5 mph (ESE)    
Max Wind Speed 9 mph    
Max Gust Speed 12 mph    
Visibility 10 miles    
Events Rain    
T = Trace of Precipitation, MM = Missing Value Source: NWS Daily Summary

Daily Weather History Graph

Daily Weather History Graph

Search for Another Location

Airport or City:

Trip Planner

Search our weather history database for the weather conditions in past years. The results will help you decide how hot, cold, wet, or windy it might be!

Date:

Astronomy

Feb. 23, 2011 Rise Set
Actual Time 6:59 AM EST 6:07 PM EST
Civil Twilight 6:33 AM EST 6:34 PM EST
Nautical Twilight 6:02 AM EST 7:04 PM EST
Astronomical Twilight 5:32 AM EST 7:34 PM EST
Moon No Moon Rise 9:55 AM EST (2/23)
Length of Visible Light 12h 00m
Length of Day
11h 08m
Waning Gibbous, 64% of the Moon is Illuminated
Feb 23
Waning Gibbous
Feb 24
Last Quarter
Mar 4
New
Mar 12
First Quarter
Mar 19
Full

Hourly Weather History & Observations

Time (EST) Temp. Windchill Dew Point Humidity Pressure Visibility Wind Dir Wind Speed Gust Speed Precip Events Conditions
12:24 AM 33.8 °F 28.6 °F 30.2 °F 87% 30.23 in 10.0 mi SE 5.8 mph - 0.00 in Rain Light Rain
12:54 AM 33.1 °F 28.7 °F 28.9 °F 85% 30.26 in 10.0 mi ESE 4.6 mph - 0.00 in   Overcast
1:54 AM 33.1 °F 27.7 °F 28.9 °F 85% 30.27 in 10.0 mi ESE 5.8 mph - N/A   Overcast
2:54 AM 33.1 °F 27.7 °F 28.0 °F 82% 30.27 in 10.0 mi ESE 5.8 mph - N/A   Overcast
3:54 AM 32.0 °F 27.5 °F 28.0 °F 85% 30.27 in 10.0 mi SE 4.6 mph - N/A   Overcast
4:35 AM 32.0 °F 27.5 °F 28.4 °F 87% 30.26 in 10.0 mi ESE 4.6 mph - N/A   Overcast
4:54 AM 32.0 °F 26.4 °F 28.0 °F 85% 30.29 in 10.0 mi SE 5.8 mph - N/A   Overcast
5:54 AM 32.0 °F 27.5 °F 27.0 °F 82% 30.31 in 10.0 mi ESE 4.6 mph - N/A   Overcast
6:54 AM 32.0 °F 28.7 °F 28.0 °F 85% 30.32 in 10.0 mi SE 3.5 mph - 0.00 in   Overcast
7:46 AM 32.0 °F 27.5 °F 28.4 °F 87% 30.31 in 10.0 mi SE 4.6 mph - N/A   Overcast
7:54 AM 32.0 °F 26.4 °F 28.0 °F 85% 30.34 in 10.0 mi SE 5.8 mph - N/A   Overcast
8:17 AM 33.8 °F 29.6 °F 28.4 °F 81% 30.32 in 10.0 mi SE 4.6 mph - N/A   Overcast
8:54 AM 33.1 °F 26.9 °F 28.0 °F 82% 30.35 in 10.0 mi ESE 6.9 mph - N/A   Overcast
9:46 AM 33.8 °F 28.6 °F 28.4 °F 81% 30.33 in 9.0 mi SE 5.8 mph - N/A   Overcast
9:54 AM 34.0 °F 28.8 °F 28.9 °F 82% 30.36 in 9.0 mi SSE 5.8 mph - N/A   Overcast
10:15 AM 33.8 °F 28.6 °F 28.4 °F 81% 30.34 in 9.0 mi ESE 5.8 mph - N/A   Overcast
10:54 AM 34.0 °F 28.8 °F 28.9 °F 82% 30.37 in 9.0 mi ESE 5.8 mph - N/A   Overcast
11:13 AM 35.6 °F 31.7 °F 28.4 °F 75% 30.34 in 9.0 mi East 4.6 mph - N/A   Overcast
11:21 AM 35.6 °F 30.7 °F 28.4 °F 75% 30.34 in 9.0 mi East 5.8 mph - N/A   Overcast
11:54 AM 36.0 °F 32.1 °F 28.9 °F 76% 30.37 in 10.0 mi ESE 4.6 mph - N/A   Overcast
12:54 PM 39.0 °F 35.7 °F 30.0 °F 70% 30.33 in 10.0 mi NE 4.6 mph - N/A   Overcast
1:54 PM 41.0 °F 36.4 °F 30.0 °F 65% 30.30 in 10.0 mi ESE 6.9 mph - N/A   Overcast
2:54 PM 42.1 °F 39.2 °F 30.0 °F 62% 30.29 in 10.0 mi NE 4.6 mph - N/A   Mostly Cloudy
3:21 PM 42.8 °F 39.3 °F 30.2 °F 61% 30.27 in 10.0 mi Variable 5.8 mph - N/A   Mostly Cloudy
3:54 PM 43.0 °F 40.3 °F 30.0 °F 60% 30.29 in 10.0 mi NE 4.6 mph - N/A   Mostly Cloudy
4:54 PM 44.1 °F 40.1 °F 30.9 °F 60% 30.29 in 10.0 mi ENE 6.9 mph - N/A   Scattered Clouds
5:54 PM 42.1 °F 38.4 °F 30.9 °F 65% 30.29 in 10.0 mi NNE 5.8 mph - N/A   Clear
6:54 PM 39.0 °F 33.4 °F 30.9 °F 73% 30.30 in 10.0 mi NNE 8.1 mph - N/A   Clear
7:54 PM 37.9 °F 32.7 °F 30.9 °F 76% 30.32 in 10.0 mi NE 6.9 mph - N/A   Clear
8:54 PM 35.1 °F - 28.9 °F 78% 30.32 in 10.0 mi Calm Calm - N/A   Clear
9:54 PM 35.1 °F - 30.0 °F 82% 30.31 in 9.0 mi Calm Calm - N/A   Clear
10:54 PM 34.0 °F 31.0 °F 28.9 °F 82% 30.31 in 9.0 mi ENE 3.5 mph - N/A   Clear
11:54 PM 30.0 °F - 27.0 °F 88% 30.31 in 7.0 mi Calm Calm - N/A   Clear